Cooperstown, ND

8:49 PM CDT on April 26, 2018 (GMT -0500)
Cooperstown

Weather History for KS32 - August, 2013

Change the Weather History Date:

Sunday, August 11, 2013

  Actual Average (KJMS) Record (KJMS)
Temperature  
Mean Temperature 64 °F -  
Max Temperature 73 °F 84 °F 103 °F (1969)
Min Temperature 55 °F 54 °F 33 °F (1902)
Degree Days  
Heating Degree Days 1    
Growing Degree Days 14 (Base 50)    
Moisture  
Dew Point 55 °F    
Average Humidity 79    
Maximum Humidity 100    
Minimum Humidity 41    
Precipitation  
Precipitation 0.04 in - - ()
Sea Level Pressure  
Sea Level Pressure 30.10 in    
Wind  
Wind Speed 6 mph (North)    
Max Wind Speed 12 mph    
Max Gust Speed 16 mph    
Visibility 9 miles    
Events Fog , Rain    
Averages and records for this station are not official NWS values.
T = Trace of Precipitation, MM = Missing Value Source: NWS Daily Summary

Daily Weather History Graph

Daily Weather History Graph

Search for Another Location

Airport or City:

Astronomy

Aug. 11, 2013 Rise Set
Actual Time 6:23 AM CDT 8:50 PM CDT
Civil Twilight 5:49 AM CDT 9:24 PM CDT
Nautical Twilight 5:06 AM CDT 10:07 PM CDT
Astronomical Twilight 4:16 AM CDT 10:56 PM CDT
Moon 11:38 AM CDT (8/11) 10:40 PM CDT (8/11)
Length of Visible Light 15h 35m
Length of Day
14h 26m
Waxing Crescent, 22% of the Moon is Illuminated
Aug 11
Waxing Crescent
Aug 14
First Quarter
Aug 20
Full
Aug 28
Last Quarter
Sep 5
New

Hourly Weather History & Observations

Time (CDT) Temp. Dew Point Humidity Pressure Visibility Wind Dir Wind Speed Gust Speed Precip Events Conditions
12:15 AM 59.0 °F 59.0 °F 100% 30.09 in 7.0 mi West 3.5 mph - 0.01 in Rain Light Rain
12:35 AM 59.0 °F 59.0 °F 100% 30.08 in 10.0 mi West 4.6 mph - 0.01 in Rain Light Rain
12:55 AM 59.0 °F 59.0 °F 100% 30.09 in 5.0 mi NNW 5.8 mph - 0.01 in Rain Light Rain
1:15 AM 59.0 °F 59.0 °F 100% 30.10 in 5.0 mi WNW 5.8 mph - 0.01 in Rain Light Rain
1:35 AM 59.0 °F 59.0 °F 100% 30.10 in 5.0 mi NNW 8.1 mph - 0.03 in Rain Light Rain
1:55 AM 59.0 °F 59.0 °F 100% 30.09 in 10.0 mi North 5.8 mph - 0.03 in   Overcast
2:15 AM 59.0 °F 59.0 °F 100% 30.09 in 10.0 mi North 5.8 mph - N/A   Overcast
2:35 AM 59.0 °F 59.0 °F 100% 30.09 in 10.0 mi North 6.9 mph - N/A   Overcast
2:55 AM 59.0 °F 59.0 °F 100% 30.08 in 10.0 mi NNE 4.6 mph - N/A   Overcast
3:15 AM 59.0 °F 59.0 °F 100% 30.08 in 10.0 mi NNE 5.8 mph - N/A   Overcast
3:35 AM 57.2 °F 57.2 °F 100% 30.09 in 10.0 mi North 5.8 mph - N/A   Overcast
3:55 AM 57.2 °F 57.2 °F 100% 30.09 in 10.0 mi NNE 4.6 mph - N/A   Overcast
4:15 AM 57.2 °F 57.2 °F 100% 30.09 in 10.0 mi NNE 3.5 mph - N/A   Overcast
4:35 AM 57.2 °F 57.2 °F 100% 30.09 in 10.0 mi Calm Calm - N/A   Overcast
4:55 AM 57.2 °F 57.2 °F 100% 30.09 in 10.0 mi East 3.5 mph - N/A   Mostly Cloudy
5:15 AM 57.2 °F 57.2 °F 100% 30.10 in 10.0 mi Calm Calm - N/A   Mostly Cloudy
5:35 AM 57.2 °F 57.2 °F 100% 30.10 in 8.0 mi Calm Calm - N/A   Mostly Cloudy
5:55 AM 57.2 °F 57.2 °F 100% 30.10 in 10.0 mi NNE 4.6 mph - N/A   Mostly Cloudy
6:15 AM 55.4 °F 55.4 °F 100% 30.10 in 7.0 mi NNE 5.8 mph - N/A   Scattered Clouds
6:35 AM 55.4 °F 55.4 °F 100% 30.11 in 5.0 mi NNE 6.9 mph - N/A   Partly Cloudy
6:55 AM 55.4 °F 55.4 °F 100% 30.11 in 7.0 mi NNE 5.8 mph - N/A   Partly Cloudy
7:15 AM 55.4 °F 55.4 °F 100% 30.11 in 7.0 mi NNE 10.4 mph - N/A   Mostly Cloudy
7:35 AM 55.4 °F 55.4 °F 100% 30.12 in 0.2 mi NE 9.2 mph - N/A Fog Fog
7:55 AM 55.4 °F 55.4 °F 100% 30.11 in 0.2 mi NE 8.1 mph - N/A Fog Fog
8:15 AM 55.4 °F 55.4 °F 100% 30.12 in 0.2 mi NNE 5.8 mph - N/A Fog Fog
8:35 AM 55.4 °F 55.4 °F 100% 30.12 in 1.2 mi NNE 6.9 mph - N/A   Overcast
8:55 AM 55.4 °F 55.4 °F 100% 30.12 in 10.0 mi NNE 5.8 mph - N/A   Scattered Clouds
9:15 AM 57.2 °F 57.2 °F 100% 30.12 in 10.0 mi NNE 4.6 mph - N/A   Mostly Cloudy
9:35 AM 59.0 °F 59.0 °F 100% 30.12 in 10.0 mi North 8.1 mph - N/A   Mostly Cloudy
9:55 AM 59.0 °F 59.0 °F 100% 30.12 in 10.0 mi NNE 6.9 mph - N/A   Partly Cloudy
10:15 AM 62.6 °F 60.8 °F 94% 30.13 in 10.0 mi NNE 6.9 mph - N/A   Clear
10:35 AM 62.6 °F 59.0 °F 88% 30.12 in 10.0 mi NE 9.2 mph - N/A   Clear
10:55 AM 64.4 °F 59.0 °F 83% 30.13 in 10.0 mi NE 5.8 mph - N/A   Clear
11:15 AM 64.4 °F 59.0 °F 83% 30.13 in 10.0 mi ENE 6.9 mph - N/A   Clear
11:35 AM 66.2 °F 57.2 °F 73% 30.13 in 10.0 mi NE 8.1 mph - N/A   Clear
11:55 AM 68.0 °F 57.2 °F 68% 30.13 in 10.0 mi North 6.9 mph - N/A   Clear
12:15 PM 68.0 °F 57.2 °F 68% 30.13 in 10.0 mi North 4.6 mph - N/A   Partly Cloudy
12:35 PM 68.0 °F 57.2 °F 68% 30.13 in 10.0 mi North 10.4 mph - N/A   Scattered Clouds
12:55 PM 69.8 °F 53.6 °F 56% 30.12 in 10.0 mi ENE 5.8 mph - N/A   Partly Cloudy
1:15 PM 71.6 °F 55.4 °F 57% 30.12 in 10.0 mi North 3.5 mph - N/A   Partly Cloudy
1:35 PM 69.8 °F 53.6 °F 56% 30.12 in 10.0 mi NW 6.9 mph - N/A   Partly Cloudy
1:55 PM 71.6 °F 53.6 °F 53% 30.12 in 10.0 mi North 8.1 mph - N/A   Partly Cloudy
2:15 PM 71.6 °F 53.6 °F 53% 30.11 in 10.0 mi NNW 8.1 mph - N/A   Partly Cloudy
2:35 PM 71.6 °F 50.0 °F 46% 30.11 in 10.0 mi NNW 4.6 mph - N/A   Scattered Clouds
2:55 PM 73.4 °F 50.0 °F 44% 30.11 in 10.0 mi NNE 4.6 mph - N/A   Scattered Clouds
3:15 PM 73.4 °F 50.0 °F 44% 30.11 in 10.0 mi North 6.9 mph - N/A   Partly Cloudy
3:35 PM 73.4 °F 50.0 °F 44% 30.11 in 10.0 mi North 11.5 mph 16.1 mph N/A   Partly Cloudy
3:55 PM 73.4 °F 51.8 °F 47% 30.11 in 10.0 mi North 10.4 mph - N/A   Clear
4:15 PM 73.4 °F 48.2 °F 41% 30.10 in 10.0 mi North 8.1 mph - N/A   Clear
4:35 PM 73.4 °F 48.2 °F 41% 30.10 in 10.0 mi North 8.1 mph - N/A   Clear
4:55 PM 73.4 °F 48.2 °F 41% 30.09 in 10.0 mi North 10.4 mph - N/A   Clear
5:15 PM 73.4 °F 48.2 °F 41% 30.09 in 10.0 mi West 5.8 mph - N/A   Clear
5:35 PM 73.4 °F 48.2 °F 41% 30.08 in 10.0 mi North 6.9 mph - N/A   Clear
5:55 PM 73.4 °F 48.2 °F 41% 30.08 in 10.0 mi WNW 9.2 mph - N/A   Clear
6:15 PM 73.4 °F 50.0 °F 44% 30.08 in 10.0 mi North 6.9 mph - N/A   Clear
6:35 PM 71.6 °F 50.0 °F 46% 30.08 in 10.0 mi NNW 8.1 mph - N/A   Clear
6:55 PM 71.6 °F 50.0 °F 46% 30.07 in 10.0 mi North 4.6 mph - N/A   Clear
7:15 PM 71.6 °F 51.8 °F 50% 30.07 in 10.0 mi North 8.1 mph - N/A   Clear
7:35 PM 71.6 °F 50.0 °F 46% 30.07 in 10.0 mi NNW 8.1 mph - N/A   Clear
7:55 PM 69.8 °F 55.4 °F 60% 30.07 in 10.0 mi North 5.8 mph - N/A   Clear
8:15 PM 68.0 °F 55.4 °F 64% 30.07 in 10.0 mi North 5.8 mph - N/A   Unknown
8:35 PM 66.2 °F 57.2 °F 73% 30.07 in 10.0 mi North 5.8 mph - N/A   Clear
8:55 PM 64.4 °F 57.2 °F 77% 30.07 in 10.0 mi NNW 4.6 mph - N/A   Clear
9:15 PM 60.8 °F 57.2 °F 88% 30.08 in 10.0 mi North 4.6 mph - N/A   Clear
9:35 PM 59.0 °F 55.4 °F 88% 30.08 in 10.0 mi North 3.5 mph - N/A   Clear
9:55 PM 57.2 °F 55.4 °F 94% 30.08 in 10.0 mi North 3.5 mph - N/A   Clear
10:15 PM 57.2 °F 55.4 °F 94% 30.08 in 10.0 mi Calm Calm - N/A   Clear
10:35 PM 55.4 °F 53.6 °F 94% 30.08 in 10.0 mi North 3.5 mph - N/A   Clear
10:55 PM 55.4 °F 53.6 °F 94% 30.09 in 10.0 mi NNW 3.5 mph - N/A   Clear